Weather History for KPSX - June, 2014

Change the Weather History Date:

Sunday, June 8, 2014

  Actual Average Record
Temperature  
Mean Temperature 85 °F -  
Max Temperature 89 °F 86 °F 95 °F (1943)
Min Temperature 81 °F 73 °F 63 °F (1983)
Cooling Degree Days 20    
Growing Degree Days 35 (Base 50)    
Moisture  
Dew Point 74 °F    
Average Humidity 72    
Maximum Humidity 82    
Minimum Humidity 59    
Precipitation  
Precipitation 0.00 in - - ()
Sea Level Pressure  
Sea Level Pressure 29.90 in    
Wind  
Wind Speed 15 mph (SSE)    
Max Wind Speed 20 mph    
Max Gust Speed 26 mph    
Visibility 9 miles    
Events      
Averages and records for this station are not official NWS values.
T = Trace of Precipitation, MM = Missing Value Source: NWS Daily Summary

Daily Weather History Graph

Daily Weather History Graph

Search for Another Location

Airport or City:

Trip Planner

Search our weather history database for the weather conditions in past years. The results will help you decide how hot, cold, wet, or windy it might be!

Date:

Astronomy

Jun. 08, 2014 Rise Set
Actual Time 6:26 AM CDT 8:21 PM CDT
Civil Twilight 5:59 AM CDT 8:48 PM CDT
Nautical Twilight 5:27 AM CDT 9:21 PM CDT
Astronomical Twilight 4:52 AM CDT 9:55 PM CDT
Moon 4:00 PM CDT (6/8) 2:58 AM CDT (6/8)
Length of Visible Light 14h 49m
Length of Day
13h 55m
Waxing Gibbous, 77% of the Moon is Illuminated
Jun 8
Waxing Gibbous
Jun 12
Full
Jun 19
Last Quarter
Jun 27
New
Jul 5
First Quarter

Hourly Weather History & Observations

Time (CDT) Temp. Heat Index Dew Point Humidity Pressure Visibility Wind Dir Wind Speed Gust Speed Precip Events Conditions
12:53 AM 81.0 °F 86.2 °F 73.9 °F 79% 29.93 in 10.0 mi SSE 16.1 mph - N/A   Partly Cloudy
1:53 AM 81.0 °F 86.2 °F 73.9 °F 79% 29.92 in 10.0 mi SSE 13.8 mph - N/A   Partly Cloudy
3:53 AM 81.0 °F 86.2 °F 73.9 °F 79% 29.90 in 10.0 mi SSE 17.3 mph - N/A   Clear
4:53 AM 81.0 °F 86.2 °F 73.9 °F 79% 29.89 in 10.0 mi SSE 17.3 mph 25.3 mph N/A   Partly Cloudy
5:53 AM 81.0 °F 86.2 °F 73.9 °F 79% 29.90 in 9.0 mi SSE 15.0 mph - N/A   Scattered Clouds
6:53 AM 81.0 °F 86.7 °F 75.0 °F 82% 29.91 in 9.0 mi SSE 13.8 mph - N/A   Partly Cloudy
8:26 AM 82.9 °F 89.4 °F 73.9 °F 74% 29.93 in 9.0 mi SSE 16.1 mph 23.0 mph N/A   Mostly Cloudy
8:37 AM 82.9 °F 89.4 °F 73.9 °F 74% 29.94 in 9.0 mi SSE 13.8 mph - N/A   Scattered Clouds
8:53 AM 84.0 °F 91.2 °F 73.9 °F 72% 29.94 in 9.0 mi SSE 18.4 mph 24.2 mph N/A   Scattered Clouds
9:53 AM 84.9 °F 92.1 °F 73.9 °F 69% 29.94 in 10.0 mi SSE 19.6 mph 24.2 mph N/A   Partly Cloudy
10:53 AM 86.0 °F 93.8 °F 73.9 °F 67% 29.96 in 9.0 mi South 12.7 mph - N/A   Clear
11:53 AM 87.1 °F 94.5 °F 73.0 °F 63% 29.97 in 10.0 mi South 15.0 mph - N/A   Clear
12:53 PM 88.0 °F 95.6 °F 73.0 °F 61% 29.96 in 10.0 mi South 12.7 mph 23.0 mph N/A   Clear
1:53 PM 88.0 °F 95.6 °F 73.0 °F 61% 29.94 in 9.0 mi South 15.0 mph - N/A   Clear
2:53 PM 89.1 °F 97.0 °F 73.0 °F 59% 29.92 in 9.0 mi South 12.7 mph 20.7 mph N/A   Clear
3:53 PM 88.0 °F 95.6 °F 73.0 °F 61% 29.90 in 9.0 mi SSE 16.1 mph - N/A   Clear
4:53 PM 88.0 °F 95.6 °F 73.0 °F 61% 29.87 in 8.0 mi South 11.5 mph 23.0 mph N/A   Partly Cloudy
5:53 PM 86.0 °F 93.0 °F 73.0 °F 65% 29.85 in 9.0 mi SSE 18.4 mph - N/A   Scattered Clouds
6:53 PM 84.9 °F 91.4 °F 73.0 °F 67% 29.83 in 8.0 mi SSE 15.0 mph - N/A   Scattered Clouds
7:53 PM 82.9 °F 88.8 °F 73.0 °F 72% 29.83 in 8.0 mi SSE 18.4 mph 25.3 mph N/A   Scattered Clouds
8:53 PM 82.0 °F 87.9 °F 73.9 °F 76% 29.82 in 9.0 mi SSE 18.4 mph 26.5 mph N/A   Partly Cloudy
9:24 PM 82.0 °F 87.9 °F 73.9 °F 76% 29.83 in 9.0 mi SSE 13.8 mph 23.0 mph N/A   Mostly Cloudy
9:49 PM 82.4 °F 88.2 °F 73.4 °F 74% 29.85 in 9.0 mi South 15.0 mph 23.0 mph N/A   Scattered Clouds
9:53 PM 82.0 °F 87.9 °F 73.9 °F 76% 29.85 in 9.0 mi SSE 18.4 mph 23.0 mph N/A   Scattered Clouds
10:33 PM 82.0 °F 87.9 °F 73.9 °F 76% 29.87 in 9.0 mi South 11.5 mph - N/A   Mostly Cloudy
10:53 PM 82.0 °F 87.9 °F 73.9 °F 76% 29.87 in 9.0 mi South 15.0 mph - N/A   Mostly Cloudy
11:53 PM 82.0 °F 87.9 °F 73.9 °F 76% 29.88 in 10.0 mi South 13.8 mph - N/A   Mostly Cloudy